User: anonymous   Login
Location: Limerick
(52.6800°N, 8.6400°W)
Time: 06:22:34
(UTC+00:00)
Language:

Sapphire - Orbit

View from above orbital plane
View from above orbital plane
View from above satellite
View from above satellite

Ground track
Ground track

The orbit data is extracted from the following two-line orbital elements,

1 26932U 01043D   15025.56413839  .00000033  00000-0  44642-4 0  8126
2 26932 067.0559 186.1548 0008837 270.0295 089.9793 14.30096605695447
Epoch (UTC): 25 January 2015 13:32:21
Eccentricity: 0.0008837
inclination: 67.0559°
perigee height: 785 km
apogee height: 798 km
right ascension of ascending node: 186.1548°
argument of perigee: 270.0295°
revolutions per day: 14.30096605
mean anomaly at epoch: 89.9793°
orbit number at epoch: 69544

The dashed part of the orbit path shows where the satellite is in the earth's shadow,  

DLR